Dalhart, TX

9:36 PM CDT on July 29, 2016 (GMT -0500)
Dalhart Municipal

Weather History for KDHT - January, 2012

Change the Weather History Date:

Monday, January 30, 2012

  Actual Average Record
Temperature  
Mean Temperature 46 °F 36 °F  
Max Temperature 70 °F 51 °F 76 °F (2016)
Min Temperature 22 °F 20 °F -4 °F (1949)
Degree Days  
Heating Degree Days 19 30  
Month to date heating degree days 749 911  
Since 1 July heating degree days 2625 2854  
Cooling Degree Days 0 0  
Month to date cooling degree days 0 0  
Year to date cooling degree days 0 0  
Moisture  
Dew Point 14 °F    
Average Humidity 40    
Maximum Humidity 68    
Minimum Humidity 11    
Precipitation  
Precipitation 0.00 in 0.02 in 0.68 in (1999)
Month to date precipitation 0.02 0.50  
Year to date precipitation 0.02 0.50  
Snow  
Snow 0.00 in 0.10 in 4.50 in (1994)
Month to date snowfall 0.0 4.1  
Since 1 July snowfall 8.3 10.3  
Snow Depth 0.00 in    
Sea Level Pressure  
Sea Level Pressure 29.91 in    
Wind  
Wind Speed 11 mph (WSW)    
Max Wind Speed 23 mph    
Max Gust Speed 29 mph    
Visibility 10 miles    
Events      
T = Trace of Precipitation, MM = Missing Value Source: NWS Daily Summary

Daily Weather History Graph

Daily Weather History Graph

Search for Another Location

Airport or City:

Trip Planner

Search our weather history database for the weather conditions in past years. The results will help you decide how hot, cold, wet, or windy it might be!

Date:

Astronomy

Jan. 30, 2012 Rise Set
Actual Time 7:52 AM CST 6:14 PM CST
Civil Twilight 7:25 AM CST 6:41 PM CST
Nautical Twilight 6:54 AM CST 7:12 PM CST
Astronomical Twilight 6:24 AM CST 7:42 PM CST
Moon 11:32 AM CST 12:45 AM CST
Length of Visible Light 11h 16m
Length of Day
10h 21m
Waxing Crescent, 46% of the Moon is Illuminated
Jan 30
Waxing Crescent
Jan 30
First Quarter
Feb 7
Full
Feb 14
Last Quarter
Feb 21
New

Hourly Weather History & Observations

Time (CST) Temp. Windchill Dew Point Humidity Pressure Visibility Wind Dir Wind Speed Gust Speed Precip Events Conditions
12:53 AM 32.0 °F - 12.9 °F 45% 30.09 in 10.0 mi Calm Calm - N/A   Clear
1:53 AM 30.9 °F 27.5 °F 12.0 °F 46% 30.06 in 10.0 mi NW 3.5 mph - N/A   Clear
2:53 AM 24.1 °F 18.2 °F 12.0 °F 60% 30.05 in 10.0 mi SSW 4.6 mph - N/A   Clear
3:53 AM 28.9 °F 25.2 °F 15.1 °F 56% 30.01 in 10.0 mi West 3.5 mph - N/A   Clear
4:53 AM 30.0 °F 25.2 °F 16.0 °F 56% 29.98 in 10.0 mi West 4.6 mph - N/A   Clear
5:53 AM 25.0 °F 16.3 °F 15.1 °F 66% 29.99 in 10.0 mi SW 8.1 mph - N/A   Clear
6:53 AM 32.0 °F 23.0 °F 16.0 °F 52% 29.99 in 10.0 mi WSW 11.5 mph - N/A   Clear
7:53 AM 30.2 °F 23.4 °F 17.6 °F 60% 29.99 in 10.0 mi WSW 6.9 mph - N/A   Clear
8:53 AM 37.4 °F 30.8 °F 17.6 °F 45% 29.99 in 10.0 mi WSW 9.2 mph - N/A   Clear
9:53 AM 43.0 °F 38.2 °F 19.9 °F 40% 29.97 in 10.0 mi WSW 8.1 mph - N/A   Clear
10:53 AM 53.6 °F - 19.4 °F 26% 29.97 in 10.0 mi WSW 10.4 mph - N/A   Clear
11:53 AM 62.1 °F - 17.1 °F 18% 29.91 in 10.0 mi WSW 9.2 mph - N/A   Clear
12:53 PM 63.0 °F - 18.0 °F 18% 29.87 in 10.0 mi South 16.1 mph - N/A   Clear
1:53 PM 66.9 °F - 16.0 °F 14% 29.82 in 10.0 mi SSW 18.4 mph - N/A   Clear
2:53 PM 69.1 °F - 14.0 °F 12% 29.80 in 10.0 mi SW 17.3 mph 25.3 mph N/A   Clear
3:53 PM 69.1 °F - 12.9 °F 11% 29.78 in 10.0 mi SW 19.6 mph 25.3 mph N/A   Clear
4:53 PM 69.1 °F - 12.9 °F 11% 29.76 in 10.0 mi SW 15.0 mph - N/A   Clear
5:53 PM 63.0 °F - 12.0 °F 14% 29.79 in 10.0 mi SW 13.8 mph - N/A   Clear
6:53 PM 48.9 °F - 10.9 °F 22% 29.81 in 10.0 mi SSW 10.4 mph - N/A   Clear
7:53 PM 44.1 °F 38.1 °F 10.9 °F 26% 29.83 in 10.0 mi SSW 11.5 mph - N/A   Clear
8:53 PM 36.0 °F 28.0 °F 12.0 °F 37% 29.85 in 10.0 mi WSW 11.5 mph - N/A   Clear
9:53 PM 45.0 °F 38.2 °F 10.0 °F 24% 29.81 in 10.0 mi WSW 15.0 mph - N/A   Clear
10:53 PM 42.1 °F 35.2 °F 12.0 °F 29% 29.81 in 10.0 mi West 12.7 mph - N/A   Clear
11:53 PM 37.9 °F 28.9 °F 12.9 °F 36% 29.81 in 10.0 mi WSW 16.1 mph - N/A   Clear